IRIDIUM 33 DEB, 33953

Orbit data source: Space-Track

IRIDIUM 33 DEB, 33953 is space debris in LEO originally from a launch on Sun, 14 Sep 1997 UTC launched from the Tyuratam Missile And Space Complex (TTMTR). The debris from Iridium 33, an American commercial communications satellite, has been tracked extensively since its accidental collision with the defunct Russian satellite Cosmos 2251 in 2009. This event, occurring at high speed in low Earth orbit (LEO), generated thousands of pieces of space debris, significantly increasing the risk of further collisions. The Iridium 33 debris cloud has impacted space traffic management and orbital debris mitigation strategies, making it a subject of ongoing study in space situational awareness.

Loading next visibility...
Identifier
33953, 1997-051BN
Orbit
LEO
Country
Flag of USUS
Related business
Manufacturer
Unknown
Mission
Spacecraft
Bus & Motor
Unknown
Mass
Unknown
Launch date (UTC)
1997-09-14 (29 years ago)
Launch vehicle
Unknown
Launch site
Tyuratam Missile And Space Complex (TTMTR)
Object type
Payload
Rocket body
Debris
Shape & HBR
Unknown shape, 0.1 m
Radar Cross Section
Medium (>0.1 m² and <1 m²)

Expand to show TLE details & history
Last TLE update: 18 hours ago

TLE from 18 hours ago
0 IRIDIUM 33 DEB
1 33953U 97051BN  26208.78475883  .00003354  00000-0  73437-3 0  9995
2 33953  86.3873 315.0833 0017787  60.8079  92.7484 14.57358535916087
Epoch: 2026-07-27T18:50Z
TLE epoch observation values (Epoch: 2026-07-27T18:50:03.162Z)
Latitude
26.2178°
Longitude
-94.66537°
Altitude
705.685 km
Speed
7.505 km/s
True Right ascension
08h 53m 14s
True Declination
26° 04' 51"
Sunlit
Object was in daylight at epoch
Visualization orbit readout
Latitude
Unknown
Longitude
Unknown
Altitude
Unknown
Speed
Unknown
Apparent Right ascension
Unknown
Apparent Declination
Unknown
Sunlit
N/A
Visualization observer readout
Local Sidereal Time
02:14:42
Azimuth
Unknown
Elevation
Unknown
Doppler factor
Unknown
Orbital elements
Apogee altitude
711.235 km
Perigee altitude
686.06 km
Semi-major axis
7,076.785 km
Eccentricity
0.00178
Inclination
86.3873°
RAAN
315.0833°
Arg. of periapsis
60.8079°
True anomaly
92.95197°
Mean anomaly
92.7484°
Eccentric anomaly
92.85019°
Mean motion
3.64577 °/min
Orbital period
98.74 mins
BSTAR
0.00073437
Loading maneuver chart data...
Computing Atmospheric mass density...

Documentation

Showing up to 5 results
|